Regional Weather Roundup
Issued by NWS

Home | Current Version | Previous Version | Text Only | Print | Product List | Glossary On
Versions: 1 2 3 4 5 6 7 8 9 10 11 12 13 14 15 16 17 18 19 20 21 22 23 24 25 26 27 28 29 30 31 32 33 34 35 36 37 38 39 40 41 42 43 44 45 46 47 48 49 50
000
ASUS43 KLSX 021407
RWRMO

WEATHER SUMMARY FOR MISSOURI
NATIONAL WEATHER SERVICE SPRINGFIELD MO
900 AM CDT SUN AUG 02 2015

NOTE: "FAIR" INDICATES FEW OR NO CLOUDS BELOW 12,000 FEET WITH NO
       SIGNIFICANT WEATHER AND/OR OBSTRUCTIONS TO VISIBILITY.
       CURRENT SKY AND/OR WEATHER CONDITIONS ARE NOT AVAILABLE FOR
       CHILLICOTHE AND FARMINGTON.

MOZ001>031-035>038-043-044-053-054-021500-
...NORTHERN AND WESTERN MISSOURI...

CITY           SKY/WX    TMP DP  RH WIND       PRES   REMARKS
KANSAS CTY INT MOSUNNY   79  70  74 SW12      29.93S
KANSAS C DTWN  SUNNY     83  68  60 SW9       29.92S
LEE`S SUMMIT   SUNNY     80  68  66 SW12      29.95S
ST JOSEPH      SUNNY     78  72  81 SW8       29.90F
CHILLICOTHE      N/A     78  69  73 VRB5      29.92S
KIRKSVILLE     LGT RAIN  74  65  73 SW9       29.93R

$$
MOZ066>068-077>081-088>096-101>105-021500-
...SOUTHWEST MISSOURI...

CITY           SKY/WX    TMP DP  RH WIND       PRES   REMARKS
SPRINGFIELD    SUNNY     80  68  66 S6        30.00S
JOPLIN         SUNNY     82  66  58 S6        29.99R

$$
MOZ032>034-039>042-045>050-055>058-069>072-021500-
...CENTRAL MISSOURI...

CITY           SKY/WX    TMP DP  RH WIND       PRES   REMARKS
COLUMBIA       SUNNY     77  70  79 SW9       29.96S
JEFFERSON CITY SUNNY     78  68  71 S3        29.96S
ROLLA          SUNNY     78  68  71 SW7       29.99R
SEDALIA        SUNNY     78  68  71 SW9       29.97S
WHITEMAN AFB   SUNNY     78  68  71 SW9       29.95S
WARRENSBURG    SUNNY     77  66  69 S8        29.95S
OSAGE BEACH    SUNNY     79  68  69 S5        29.99S

$$
MOZ051-052-059>065-021500-
...EAST CENTRAL MISSOURI...

CITY           SKY/WX    TMP DP  RH WIND       PRES   REMARKS
ST LOUIS INTL  MOSUNNY   83  67  58 S9        29.96F
SPIRIT OF STL  MOSUNNY   81  69  67 SW9       29.94F
ST CHARLES     SUNNY     79  70  74 S6        29.94F

$$
MOZ072>076-082>087-097>100-106>115-021500-
...SOUTH CENTRAL AND SOUTHEAST MISSOURI...

CITY           SKY/WX    TMP DP  RH WIND       PRES   REMARKS
CAPE GIRARDEAU SUNNY     80  70  71 S7        29.99R
FARMINGTON     SUNNY     79  72  78 SW5       30.04R
POPLAR BLUFF   SUNNY     80  73  79 S5        29.97R
WEST PLAINS    SUNNY     80  66  62 SW3       30.04R

$$



USA.gov is the U.S. government's official web portal to all federal, state and local government web resources and services.